Rochester, MN
on Sunday, July 14, 2013

Sunday
Previous Day Next Day
Daily Summary
 ActualAverageRecord
Temperature
Mean Temperature °F 72°F  
Max Temperature 83°F 82°F 108°F (1936)
Min Temperature 64°F 62°F 47°F (1960)
Degree Days
Heating Degree Days 0 0  
Month to date heating degree days 0 0  
Since 1 June heating degree days 60  
Since 1 July heating degree days 0 0  
Cooling Degree Days 9 7  
Month to date cooling degree days 124 98  
Year to date cooling degree days 280 262  
Since 1 June cooling degree days 250  
Growing Degree Days23 (Base °F )  
Moisture
Dew Point 63°F   
Average Humidity 70    
Maximum Humidity 84    
Minimum Humidity 55    
Precipitation
Precipitation 0.00 in 0.15 in 1.37 in (1984)
Month to date precipitation 0.92 2.07  
Year to date precipitation 31.68 17.19  
Since 1 June precipitation 7.78 6.75  
Snow
Snow 0.00 in 0.00 in 0.00 in (2012)
Month to date snowfall 0.0 0.0  
Since 1 June snowfall 0.0  
Since 1 July snowfall 0.0 0.0  
Snow Depth 0.00 in   
Wind
Wind Speed 9 mph   
Max Wind Speed 15 mph   
Max Gust Speed 21 mph   
Visibility 10 miles   
Events     

Key: T is trace of precipitation, MM is missing value
Source: NWS Daily Summary
Time(CDT)TemperatureDew PointHumidity Pressure Visibility Wind DirectionWind SpeedGust SpeedPrecipitationEvents Conditions
12:54 AM 69.1°F 63.0°F 81% 30.12 in 10.0 miles SSE 10.4 mph - N/A   Partly Cloudy
1:54 AM 69.1°F 61.0°F 75% 30.12 in 10.0 miles SSE 10.4 mph - N/A   Clear
2:54 AM 69.1°F 61.0°F 75% 30.12 in 10.0 miles South 10.4 mph - N/A   Clear
3:54 AM 66.9°F 60.1°F 79% 30.11 in 10.0 miles South 10.4 mph - N/A   Scattered Clouds
4:54 AM 66.0°F 60.1°F 81% 30.12 in 10.0 miles South 10.4 mph - N/A   Clear
5:54 AM 64.0°F 59.0°F 84% 30.14 in 9.0 miles South 6.9 mph - N/A   Clear
6:54 AM 66.0°F 60.1°F 81% 30.15 in 10.0 miles South 5.8 mph - N/A   Clear
7:54 AM 69.1°F 61.0°F 75% 30.16 in 10.0 miles South 8.1 mph - N/A   Clear
8:54 AM 73.0°F 63.0°F 71% 30.17 in 10.0 miles South 9.2 mph - N/A   Clear
9:54 AM 75.0°F 64.9°F 71% 30.18 in 10.0 miles South 9.2 mph - N/A   Clear
10:54 AM 77.0°F 66.0°F 69% 30.20 in 10.0 miles South 10.4 mph - N/A   Scattered Clouds
11:54 AM 79.0°F 64.9°F 62% 30.19 in 10.0 miles SSE 15.0 mph 19.6 mph N/A   Partly Cloudy
12:54 PM 80.1°F 66.0°F 62% 30.18 in 10.0 miles SSE 10.4 mph - N/A   Partly Cloudy
1:54 PM 81.0°F 64.9°F 58% 30.18 in 10.0 miles South 12.7 mph - N/A   Partly Cloudy
2:54 PM 82.0°F 66.0°F 58% 30.17 in 10.0 miles South 12.7 mph - N/A   Partly Cloudy
3:54 PM 81.0°F 64.0°F 56% 30.16 in 10.0 miles South 11.5 mph - N/A   Scattered Clouds
4:54 PM 82.0°F 64.9°F 56% 30.16 in 10.0 miles SSE 10.4 mph - N/A   Partly Cloudy
5:54 PM 82.0°F 64.0°F 54% 30.15 in 10.0 miles SSE 12.7 mph - N/A   Partly Cloudy
6:54 PM 80.1°F 64.9°F 60% 30.16 in 10.0 miles SE 8.1 mph - N/A   Clear
7:54 PM 78.1°F 64.9°F 64% 30.17 in 10.0 miles SE 5.8 mph - N/A   Clear
8:54 PM 73.9°F 64.9°F 73% 30.18 in 10.0 miles SE 6.9 mph - N/A   Clear
9:54 PM 71.1°F 64.0°F 78% 30.19 in 10.0 miles SSE 9.2 mph - N/A   Clear
10:54 PM 72.0°F 62.1°F 71% 30.20 in 10.0 miles SSE 8.1 mph - N/A   Clear
11:54 PM 70.0°F 62.1°F 76% 30.22 in 10.0 miles South 3.5 mph - N/A   Clear
Astronomy
Sunrise:05:40 AM (CDT) Moon Rise:12:13 PM (CDT)7/14
Sunset:08:50 PM (CDT) Moon Set:11:47 PM (CDT)7/14
Moon Phase
Jul. 14 Jul. 16 Jul. 22 Jul. 29 Aug. 06

Copyright © 2017 The Weather Underground, Inc.